When you browse on this site, cookies collect data to enhance your experience and personalize the content and advertising you see.
Visit our Privacy Policy to learn more. By continuing to use the site, you agree to this use of cookies and data.
  • In Czech Republic
  • List of Countries
  • For 7 days
  • Water Temperature
  • Weather Map
  • Weather Widgets
  • user-avatar
    Login

    Hourly Weather Santiago del Estero

    Today, 9 April, Thursday

    Time Temperature Precipitation Wind Pressure Humidity
    00:00 +18°C° 0 mm 1 mps 748 mmHg 54%
    01:00 +16°C° 0 mm 1 mps 748 mmHg 55%
    02:00 +15°C° 0 mm 1 mps 748 mmHg 57%
    03:00 +15°C° 0 mm 1 mps 748 mmHg 57%
    04:00 +15°C° 0 mm 2 mps 747 mmHg 57%
    05:00 +14°C° 0 mm 2 mps 747 mmHg 57%
    06:00 +15°C° 0 mm 2 mps 748 mmHg 56%
    07:00 +15°C° 0 mm 2 mps 748 mmHg 55%
    08:00 +16°C° 0 mm 2 mps 749 mmHg 55%
    09:00 +18°C° 0 mm 2 mps 749 mmHg 50%
    10:00 +20°C° 0 mm 2 mps 749 mmHg 46%
    11:00 +21°C° 0 mm 2 mps 749 mmHg 41%
    12:00 +23°C° 0 mm 2 mps 748 mmHg 40%
    13:00 +24°C° 0 mm 2 mps 748 mmHg 39%
    14:00 +25°C° 0 mm 2 mps 747 mmHg 38%
    15:00 +25°C° 0 mm 2 mps 747 mmHg 40%
    16:00 +25°C° 0 mm 2 mps 746 mmHg 41%
    17:00 +25°C° 0 mm 2 mps 746 mmHg 43%
    18:00 +23°C° 0 mm 2 mps 746 mmHg 47%
    19:00 +20°C° 0 mm 2 mps 746 mmHg 51%
    20:00 +18°C° 0 mm 2 mps 747 mmHg 55%
    21:00 +18°C° 0 mm 2 mps 747 mmHg 55%
    22:00 +17°C° 0 mm 2 mps 747 mmHg 56%
    23:00 +17°C° 0 mm 2 mps 747 mmHg 56%

    Tomorrow, 10 April, Friday

    Time Temperature Precipitation Wind Pressure Humidity
    00:00 +16°C° 0 mm 2 mps 747 mmHg 58%
    01:00 +16°C° 0 mm 1 mps 746 mmHg 60%
    02:00 +15°C° 0 mm 1 mps 746 mmHg 61%
    03:00 +15°C° 0 mm 1 mps 746 mmHg 63%
    04:00 +15°C° 0 mm 1 mps 746 mmHg 64%
    05:00 +14°C° 0 mm 1 mps 745 mmHg 65%
    06:00 +15°C° 0 mm 1 mps 746 mmHg 62%
    07:00 +18°C° 0 mm 1 mps 746 mmHg 59%
    08:00 +19°C° 0 mm 1 mps 747 mmHg 56%
    09:00 +20°C° 0 mm 2 mps 747 mmHg 51%
    10:00 +21°C° 0 mm 2 mps 747 mmHg 46%
    11:00 +24°C° 0 mm 3 mps 746 mmHg 41%
    12:00 +25°C° 0 mm 3 mps 746 mmHg 40%
    13:00 +26°C° 0 mm 3 mps 745 mmHg 39%
    14:00 +27°C° 0 mm 3 mps 744 mmHg 38%
    15:00 +27°C° 0 mm 3 mps 744 mmHg 40%
    16:00 +26°C° 0 mm 3 mps 744 mmHg 42%
    17:00 +26°C° 0 mm 3 mps 743 mmHg 44%
    18:00 +24°C° 0 mm 3 mps 744 mmHg 48%
    19:00 +21°C° 0 mm 3 mps 744 mmHg 52%
    20:00 +20°C° 0 mm 3 mps 744 mmHg 56%
    21:00 +19°C° 0 mm 3 mps 744 mmHg 56%
    22:00 +18°C° 0 mm 3 mps 744 mmHg 57%
    23:00 +18°C° 0 mm 3 mps 744 mmHg 57%

    Day after tomorrow, 11 April, Saturday

    Time Temperature Precipitation Wind Pressure Humidity
    00:00 +17°C° 0 mm 3 mps 744 mmHg 58%
    01:00 +17°C° 0 mm 2 mps 743 mmHg 59%
    02:00 +16°C° 0 mm 2 mps 743 mmHg 59%
    03:00 +16°C° 0 mm 2 mps 743 mmHg 60%
    04:00 +16°C° 0 mm 2 mps 743 mmHg 61%
    05:00 +15°C° 0 mm 2 mps 743 mmHg 62%
    06:00 +16°C° 0 mm 3 mps 743 mmHg 61%
    07:00 +17°C° 0 mm 3 mps 743 mmHg 60%
    08:00 +18°C° 0 mm 4 mps 743 mmHg 60%
    09:00 +20°C° 0 mm 4 mps 743 mmHg 54%
    10:00 +22°C° 0 mm 5 mps 743 mmHg 49%
    11:00 +26°C° 0 mm 5 mps 743 mmHg 44%
    12:00 +27°C° 0 mm 5 mps 743 mmHg 42%
    13:00 +28°C° 0 mm 5 mps 742 mmHg 40%
    14:00 +29°C° 0 mm 5 mps 741 mmHg 38%
    15:00 +28°C° 0 mm 4 mps 741 mmHg 40%
    16:00 +28°C° 0 mm 4 mps 741 mmHg 43%
    17:00 +28°C° 0 mm 3 mps 741 mmHg 45%
    18:00 +26°C° 0 mm 3 mps 741 mmHg 49%
    19:00 +24°C° 0 mm 3 mps 741 mmHg 53%
    20:00 +21°C° 0 mm 3 mps 742 mmHg 58%
    21:00 +21°C° 0 mm 3 mps 742 mmHg 59%
    22:00 +20°C° 0 mm 3 mps 742 mmHg 60%
    23:00 +20°C° 0 mm 4 mps 742 mmHg 60%

    12 April, Sunday

    Time Temperature Precipitation Wind Pressure Humidity
    00:00 +19°C° 0 mm 3 mps 741 mmHg 62%
    01:00 +18°C° 0 mm 3 mps 741 mmHg 63%
    02:00 +18°C° 0 mm 2 mps 741 mmHg 64%
    03:00 +17°C° 0 mm 2 mps 741 mmHg 65%
    04:00 +17°C° 0 mm 2 mps 741 mmHg 66%
    05:00 +17°C° 0 mm 2 mps 741 mmHg 67%
    06:00 +17°C° 0 mm 3 mps 741 mmHg 65%
    07:00 +18°C° 0 mm 4 mps 741 mmHg 62%
    08:00 +19°C° 0 mm 4 mps 741 mmHg 60%
    09:00 +21°C° 0 mm 4 mps 741 mmHg 54%
    10:00 +23°C° 0 mm 5 mps 741 mmHg 49%
    11:00 +27°C° 0 mm 5 mps 741 mmHg 43%
    12:00 +28°C° 0 mm 5 mps 740 mmHg 41%
    13:00 +29°C° 0 mm 5 mps 740 mmHg 39%
    14:00 +30°C° 0 mm 5 mps 739 mmHg 37%
    15:00 +30°C° 0 mm 4 mps 738 mmHg 38%
    16:00 +30°C° 0 mm 3 mps 738 mmHg 40%
    17:00 +30°C° 0 mm 2 mps 738 mmHg 41%
    18:00 +28°C° 0 mm 2 mps 738 mmHg 44%
    19:00 +26°C° 0 mm 2 mps 739 mmHg 48%
    20:00 +24°C° 0 mm 2 mps 740 mmHg 51%
    21:00 +24°C° 0 mm 2 mps 740 mmHg 54%
    22:00 +23°C° 0 mm 2 mps 740 mmHg 57%
    23:00 +21°C° 0 mm 2 mps 740 mmHg 60%

    13 April, Monday

    Time Temperature Precipitation Wind Pressure Humidity
    00:00 +20°C° 0 mm 2 mps 740 mmHg 62%
    01:00 +21°C° 0 mm 1 mps 740 mmHg 64%
    02:00 +20°C° 0 mm 1 mps 740 mmHg 65%
    03:00 +19°C° 0.1 mm 2 mps 740 mmHg 66%
    04:00 +19°C° 0.1 mm 3 mps 741 mmHg 67%
    05:00 +19°C° 0.1 mm 4 mps 741 mmHg 68%
    06:00 +19°C° 0 mm 4 mps 742 mmHg 70%
    07:00 +19°C° 0 mm 4 mps 743 mmHg 73%
    08:00 +19°C° 0 mm 4 mps 743 mmHg 75%
    09:00 +21°C° 0 mm 4 mps 744 mmHg 68%
    10:00 +23°C° 0 mm 4 mps 744 mmHg 60%
    11:00 +26°C° 0 mm 4 mps 744 mmHg 52%
    12:00 +27°C° 0 mm 4 mps 744 mmHg 49%
    13:00 +28°C° 0 mm 4 mps 744 mmHg 45%
    14:00 +30°C° 0 mm 4 mps 743 mmHg 42%
    15:00 +29°C° 0 mm 4 mps 743 mmHg 43%
    16:00 +29°C° 0 mm 4 mps 743 mmHg 45%
    17:00 +28°C° 0 mm 3 mps 742 mmHg 46%
    18:00 +26°C° 0 mm 3 mps 743 mmHg 50%
    19:00 +25°C° 0 mm 3 mps 743 mmHg 54%
    20:00 +23°C° 0 mm 2 mps 743 mmHg 58%
    21:00 +21°C° 0 mm 3 mps 744 mmHg 58%
    22:00 +21°C° 0 mm 3 mps 744 mmHg 59%
    23:00 +20°C° 0 mm 3 mps 745 mmHg 59%

    14 April, Tuesday

    Time Temperature Precipitation Wind Pressure Humidity
    00:00 +19°C° 0 mm 3 mps 745 mmHg 59%
    01:00 +19°C° 0 mm 2 mps 745 mmHg 60%
    02:00 +18°C° 0 mm 2 mps 745 mmHg 61%
    03:00 +18°C° 0 mm 2 mps 746 mmHg 61%
    04:00 +18°C° 0 mm 2 mps 746 mmHg 61%
    05:00 +18°C° 0 mm 2 mps 746 mmHg 60%
    06:00 +18°C° 0 mm 2 mps 746 mmHg 60%
    07:00 +18°C° 0 mm 2 mps 747 mmHg 60%
    08:00 +18°C° 0 mm 2 mps 747 mmHg 59%
    09:00 +19°C° 0 mm 2 mps 748 mmHg 59%
    10:00 +19°C° 0 mm 2 mps 748 mmHg 59%
    11:00 +19°C° 0 mm 2 mps 748 mmHg 60%
    12:00 +19°C° 0 mm 2 mps 747 mmHg 58%
    13:00 +21°C° 0 mm 1 mps 747 mmHg 57%
    14:00 +21°C° 0 mm 1 mps 747 mmHg 56%
    15:00 +22°C° 0 mm 1 mps 746 mmHg 54%
    16:00 +22°C° 0 mm 1 mps 746 mmHg 52%
    17:00 +23°C° 0 mm 1 mps 746 mmHg 51%
    18:00 +22°C° 0 mm 1 mps 746 mmHg 51%
    19:00 +21°C° 0 mm 1 mps 746 mmHg 52%
    20:00 +20°C° 0 mm 1 mps 747 mmHg 52%
    21:00 +20°C° 0 mm 1 mps 747 mmHg 52%
    22:00 +20°C° 0 mm 1 mps 747 mmHg 51%
    23:00 +21°C° 0 mm 1 mps 748 mmHg 51%
    Show more